RJBERJBB

Guest
Details From RJBE - Kobe
To RJBB - Kansai Intl
Flight Number -
Tags Routegen Generated
Created
Modified
Stats Distance 18 nm / 34 km
Max Altitude 100 ft / 30 m
Waypoints 5
Social Downloads 1
Likes 0
Share VATSIM

Download

Looking for another format? Having issues loading an existing format? Contact us
Advertisement - Login to hide

Notes

Departing runway 8 RJBE. Arriving runway 5 RJBB.

Route

RJBE +34.64_+135.33 +34.56_+135.33 +34.48_+135.33 RJBB

ID Type Via Altitude Latitude Longitude Leg Dist Tot Dist Heading (true) Name
O RJBE APT - 0 ft / 0 m 34.63376˚ 135.23746˚ - 0 nm - -
+34.64_+135.33 LATLON - 100 ft / 30 m 34.64054˚ 135.32502˚ 4 nm 4 nm 85° / 85° -
+34.56_+135.33 LATLON - 100 ft / 30 m 34.56171˚ 135.32600˚ 4 nm 9 nm 179° / 179° -
+34.48_+135.33 LATLON - 100 ft / 30 m 34.48287˚ 135.32698˚ 4 nm 13 nm 179° / 179° -
O RJBB APT - 0 ft / 0 m 34.43723˚ 135.25887˚ 4 nm 18 nm 231° / 231° -

Altitude Profile

Advertisement - Login to hide

RJBE

Details ICAO RJBE (UKB)
Name Kobe
Region Japan
Timezone Asia/Tokyo (UTC+9.0)
Stats Elevation 22 ft / 7 m (AMSL)
Location 34.632700° 135.223883°
Runways 1
Magnetic Variation 7.675° W

METAR

RJBE 271000Z 28006KT 230V310 CAVOK 20/18 Q1011

Decode

TAF

Not found

Departure Runways

ID Width Length Bearing (true) Bearing (mag) Surface Threshold Offset Overrun Length
09 200 ft / 61 m 8,187 ft / 2,495 m 84.58° 92.26° Asphalt 0 ft / 0 m 0 ft / 0 m
27 200 ft / 61 m 8,187 ft / 2,495 m 264.60° 272.28° Asphalt 0 ft / 0 m 0 ft / 0 m

RJBB

Details ICAO RJBB (KIX)
Name KANSAI INTL
Region Japan
Timezone Asia/Tokyo (UTC+9.0)
Stats Elevation 26 ft / 8 m (AMSL)
Location 34.433619° 135.233598°
Runways 2
Magnetic Variation 7.611° W

METAR

RJBB 271000Z 23008KT 9999 FEW040 BKN/// 20/16 Q1011 NOSIG

Decode

TAF

TAF RJBB 270509Z 2706/2812 22009KT 9999 FEW030

Decode

Destination Runways

ID Width Length Bearing (true) Bearing (mag) Surface Threshold Offset Overrun Length
06L 200 ft / 61 m 13,121 ft / 3,999 m 50.86° 58.47° Asphalt 0 ft / 0 m 200 ft / 61 m
06R 200 ft / 61 m 11,481 ft / 3,499 m 50.86° 58.47° Asphalt 0 ft / 0 m 200 ft / 61 m
24L 200 ft / 61 m 11,481 ft / 3,499 m 230.88° 238.49° Asphalt 0 ft / 0 m 200 ft / 61 m
24R 200 ft / 61 m 13,121 ft / 3,999 m 230.88° 238.49° Asphalt 0 ft / 0 m 200 ft / 61 m

Approach Navaids

Runway Type Ident Frequency Range Bearing (true) Bearing (mag) Slope Elevation
06R Localiser IKD 108.10 MHz 18 nm / 33 km 50.88° 58.49° - 26 ft / 8 m (AMSL)
06R Glidescope IKD 108.10 MHz 10 nm / 19 km 50.87° 58.48° 3.00° 54 ft / 16 m (AMSL)
06R DME IKD 108.10 MHz 18 nm / 33 km - - - 34 ft / 10 m (AMSL)
24L Localiser IKN 110.70 MHz 18 nm / 33 km 230.85° 238.46° - 26 ft / 8 m (AMSL)
24L Glidescope IKN 110.70 MHz 10 nm / 19 km 230.87° 238.48° 3.00° 36 ft / 11 m (AMSL)
24L DME IKN 110.70 MHz 18 nm / 33 km - - - 36 ft / 11 m (AMSL)

Popular Alternatives